TIROS 2 DEB *, 5922

Orbit data source: Space-Track

TIROS 2 DEB *, 5922 is space debris in LEO originally from a launch on Wed, 23 Nov 1960 UTC launched from the Air Force Eastern Test Range (AFETR). Debris objects in space refer to the collection of defunct objects orbiting the Earth. Examples of debris include non-operational satellites, rocket bodies, and fragments generated from explosions, collisions, or faulty payload assembly.

Loading next visibility...
Identifier
5922, 1960-016E
Orbit
LEO
Last TLE update
1 day ago
Origin
Manufacturer
Unknown
Mission
Spacecraft
Bus & Motor
Unknown
Mass
Unknown
Launch date (UTC)
1960-11-23 (64 years ago)
Launch vehicle
Unknown
Launch site
Air Force Eastern Test Range (AFETR)
Object type
Payload
Rocket body
Debris
Shape & HBR
Unknown
Radar Cross Section
Small (<0.1 m²)

Expand to show TLE details & history

TLE from 1 day ago
0 TIROS 2 DEB *
1 05922U 60016E   25118.83667956 -.00000034  00000-0  10836-3 0  9997
2 05922  47.0328  44.7564 0040056 162.1176 238.2349 13.70007353694631
Epoch: 2025-04-28T20:04Z
Definitive object data (Epoch: 2025-04-28T20:04:49.113Z)
Latitude
28.12371°
Longitude
-83.80591°
Altitude
1,015.955 km
Speed
7.34 km/s
True Right ascension
04h 57m 46s
True Declination
27° 59' 09"
Sunlit
Object was in daylight at TLE epoch
Visualization TLE readout
Latitude
-3.4689°
Longitude
-121.73793°
Altitude
1,029.502 km
Speed
7.324 km/s
Apparent Right ascension
00h 25m 55s
Apparent Declination
-25° 10' 07"
Sunlit
Object is in daylight
Visualization observer readout
Local Sidereal Time
09:09:41
Azimuth
274.547° WNW
Elevation
-46.7°
Doppler factor
1
Orbital elements
Apogee altitude
1,030.281 km
Perigee altitude
971.168 km
Semi-major axis
7,378.861 km
Eccentricity
0.0040056
Inclination
47.0328°
RAAN
44.7564°
Arg. of periapsis
162.1176°
True anomaly
237.84567°
Mean anomaly
238.2349°
Eccentric anomaly
238.04018°
Mean motion
3.4242 °/min
BSTAR
0.00010836
Orbital period
105.13 mins
Loading maneuver chart data...
Loading SW <> Apogee altitude chart data...
Loading historical data...
Loading historical data...
Loading historical data...
Loading historical data...
Loading historical data...
Loading historical data...
Loading historical data...
Other satellites on launch #16 in the year 1960 (1960-11-23 UTC)

TIROS 2 DEB * Visibility forecast

Observer location: undefined°, undefined°

Span
Click to sort rows by Start time (UTC) header in descending order
Start Az.
Max El. time (UTC)
Max El. Az.
Max El.
End time (UTC)
End Az.
12 mins2025-04-30 02:02:08.031Z296.739° NW2025-04-30 02:08:08.031Z5.14° NNE37.743°2025-04-30 02:14:08.031Z86.115° E
11 mins2025-04-30 03:54:08.031Z295.344° NW2025-04-30 03:59:08.031Z215.569° SW44.252°2025-04-30 04:05:08.031Z127.878° SE
7 mins2025-04-30 05:46:08.031Z260.082° W2025-04-30 05:49:08.031Z225.539° WSW19.493°2025-04-30 05:53:08.031Z184.942° SSW
11 mins2025-04-30 21:03:08.031Z210.189° SW2025-04-30 21:09:08.031Z128.268° SE36.31°2025-04-30 21:14:08.031Z71.505° E
11 mins2025-04-30 22:54:08.031Z260.545° W2025-04-30 22:59:08.031Z340.595° N42.193°2025-04-30 23:05:08.031Z60.349° ENE
11 mins2025-05-01 00:45:08.031Z291.967° WNW2025-05-01 00:50:08.031Z354.305° N35.398°2025-05-01 00:56:08.031Z71.509° E
|